QPF
0.02 0.01 0.00 0.00 0.00 0.00 0.00 0.00 0.01 0.01 0.01 0.00 0.00 0.00 0.00 0.00 0.00 0.00 0.00 0.00 0.00 0.01 0.01 0.01 0.01 0.01 0.01 0.01 0.00 0.00 0.00 0.00 0.00 0.00 0.00 0.01 0.01 0.01 0.01 0.01 0.02 0.02 0.03 0.04
0.01 0.01 0.01 0.00 0.00 0.00 0.00 0.00 0.00 0.01 0.01 0.00 0.01 0.01 0.00 0.00 0.00 0.00 0.00 0.00 0.00 0.01 0.01 0.01 0.01 0.01 0.00 0.00 0.00 0.00 0.00 0.00 0.00 0.00 0.00 0.00 0.00 0.01 0.01 0.01 0.01 0.01 0.02 0.03
0.01 0.01 0.01 0.01 0.00 0.00 0.00 0.00 0.00 0.01 0.00 0.00 0.01 0.01 0.00 0.00 0.00 0.00 0.00 0.00 0.01 0.01 0.02 0.02 0.02 0.01 0.01 0.00 0.00 0.00 0.00 0.00 0.00 0.00 0.00 0.00 0.00 0.00 0.01 0.01 0.01 0.01 0.02 0.02
0.02 0.02 0.02 0.02 0.00 0.00 0.00 0.00 0.00 0.01 0.01 0.00 0.00 0.01 0.01 0.00 0.00 0.01 0.01 0.01 0.01 0.01 0.02 0.02 0.01 0.01 0.01 0.01 0.00 0.01 0.01 0.01 0.01 0.00 0.00 0.00 0.01 0.01 0.01 0.01 0.01 0.02 0.02 0.02
0.01 0.01 0.01 0.02 0.01 0.00 0.01 0.01 0.01 0.01 0.00 0.00 0.00 0.00 0.01 0.00 0.01 0.03 0.05 0.03 0.03 0.03 0.03 0.03 0.02 0.01 0.01 0.01 0.02 0.02 0.02 0.01 0.01 0.01 0.01 0.01 0.01 0.01 0.01 0.01 0.02 0.02 0.02 0.02
0.00 0.01 0.00 0.00 0.00 0.01 0.01 0.01 0.01 0.01 0.00 0.00 0.00 0.01 0.01 0.00 0.01 0.02 0.02 0.02 0.03 0.05 0.03 0.02 0.02 0.02 0.02 0.02 0.02 0.02 0.02 0.02 0.01 0.01 0.01 0.01 0.01 0.01 0.02 0.02 0.02 0.02 0.02 0.02
0.00 0.00 0.00 0.00 0.00 0.01 0.01 0.01 0.01 0.01 0.00 0.00 0.01 0.01 0.01 0.00 0.01 0.01 0.01 0.01 0.01 0.02 0.03 0.03 0.03 0.03 0.02 0.02 0.02 0.02 0.02 0.03 0.03 0.01 0.01 0.01 0.02 0.03 0.04 0.02 0.02 0.02 0.02 0.02
0.00 0.00 0.01 0.00 0.01 0.01 0.01 0.01 0.01 0.01 0.01 0.00 0.00 0.00 0.01 0.01 0.01 0.01 0.01 0.01 0.01 0.02 0.02 0.02 0.02 0.02 0.03 0.02 0.02 0.02 0.02 0.02 0.02 0.03 0.03 0.03 0.04 0.04 0.03 0.03 0.03 0.02 0.02 0.03
0.01 0.01 0.01 0.00 0.00 0.01 0.01 0.01 0.01 0.01 0.01 0.00 0.00 0.00 0.00 0.00 0.00 0.00 0.01 0.01 0.01 0.01 0.02 0.02 0.02 0.02 0.02 0.02 0.02 0.02 0.01 0.02 0.02 0.02 0.03 0.04 0.05 0.05 0.05 0.05 0.04 0.03 0.03 0.03
0.02 0.01 0.01 0.00 0.00 0.00 0.00 0.00 0.00 0.01 0.01 0.01 0.00 0.00 0.00 0.00 0.01 0.01 0.01 0.01 0.01 0.02 0.02 0.02 0.02 0.01 0.02 0.01 0.02 0.02 0.02 0.02 0.02 0.02 0.03 0.03 0.04 0.04 0.05 0.05 0.05 0.05 0.04 0.03
0.03 0.02 0.01 0.00 0.00 0.00 0.00 0.00 0.00 0.00 0.00 0.02 0.02 0.01 0.00 0.01 0.01 0.02 0.02 0.01 0.02 0.02 0.02 0.02 0.01 0.01 0.01 0.01 0.02 0.02 0.02 0.02 0.01 0.01 0.02 0.02 0.02 0.02 0.03 0.03 0.04 0.03 0.02 0.02
0.05 0.02 0.02 0.01 0.01 0.02 0.01 0.01 0.00 0.00 0.00 0.01 0.02 0.03 0.02 0.01 0.01 0.01 0.02 0.01 0.02 0.02 0.01 0.01 0.01 0.01 0.01 0.00 0.01 0.01 0.01 0.01 0.01 0.01 0.01 0.01 0.02 0.02 0.03 0.03 0.03 0.02 0.02 0.01
0.07 0.03 0.03 0.02 0.01 0.02 0.01 0.01 0.01 0.01 0.00 0.00 0.01 0.02 0.02 0.02 0.02 0.03 0.04 0.05 0.04 0.03 0.02 0.01 0.01 0.01 0.01 0.01 0.01 0.01 0.01 0.01 0.00 0.00 0.01 0.01 0.01 0.02 0.03 0.03 0.03 0.02 0.01 0.01
0.04 0.02 0.01 0.01 0.01 0.02 0.03 0.02 0.01 0.01 0.00 0.00 0.00 0.03 0.01 0.01 0.01 0.01 0.02 0.04 0.04 0.04 0.03 0.02 0.02 0.02 0.01 0.01 0.01 0.01 0.01 0.01 0.01 0.01 0.01 0.01 0.01 0.02 0.02 0.02 0.02 0.01 0.01 0.01
0.01 0.00 0.00 0.01 0.01 0.01 0.02 0.02 0.02 0.01 0.01 0.01 0.02 0.03 0.01 0.01 0.01 0.01 0.02 0.02 0.03 0.04 0.04 0.04 0.03 0.03 0.03 0.02 0.02 0.02 0.01 0.01 0.01 0.02 0.01 0.01 0.01 0.01 0.01 0.01 0.01 0.01 0.01 0.01
0.00 0.00 0.00 0.01 0.01 0.02 0.02 0.03 0.05 0.04 0.03 0.02 0.03 0.04 0.02 0.02 0.02 0.02 0.02 0.02 0.03 0.04 0.04 0.04 0.04 0.04 0.03 0.03 0.03 0.03 0.03 0.03 0.02 0.03 0.02 0.02 0.02 0.02 0.01 0.01 0.02 0.02 0.02 0.02
0.01 0.01 0.01 0.01 0.01 0.02 0.02 0.02 0.05 0.07 0.05 0.04 0.03 0.02 0.02 0.02 0.02 0.02 0.02 0.02 0.02 0.03 0.02 0.02 0.02 0.02 0.03 0.03 0.03 0.03 0.04 0.04 0.04 0.04 0.04 0.04 0.03 0.03 0.03 0.03 0.03 0.03 0.03 0.04
0.02 0.01 0.01 0.01 0.01 0.01 0.01 0.01 0.01 0.02 0.02 0.03 0.05 0.03 0.02 0.02 0.02 0.02 0.01 0.01 0.02 0.02 0.01 0.01 0.01 0.01 0.01 0.03 0.03 0.03 0.03 0.03 0.03 0.03 0.05 0.05 0.04 0.04 0.05 0.05 0.05 0.04 0.04 0.04
0.02 0.04 0.03 0.02 0.01 0.01 0.01 0.01 0.01 0.01 0.01 0.02 0.03 0.03 0.02 0.01 0.01 0.02 0.03 0.03 0.02 0.03 0.03 0.02 0.01 0.01 0.02 0.05 0.05 0.03 0.03 0.04 0.04 0.03 0.03 0.05 0.05 0.04 0.04 0.05 0.05 0.06 0.05 0.04
0.02 0.04 0.06 0.05 0.02 0.02 0.02 0.02 0.02 0.02 0.01 0.02 0.02 0.02 0.03 0.03 0.02 0.03 0.04 0.04 0.04 0.04 0.04 0.03 0.02 0.02 0.03 0.07 0.08 0.06 0.05 0.05 0.05 0.07 0.05 0.04 0.04 0.04 0.04 0.05 0.05 0.05 0.04 0.03
0.03 0.03 0.03 0.03 0.03 0.02 0.02 0.02 0.02 0.02 0.03 0.03 0.04 0.04 0.04 0.05 0.04 0.04 0.04 0.04 0.05 0.05 0.05 0.06 0.06 0.05 0.05 0.07 0.09 0.07 0.05 0.05 0.05 0.06 0.09 0.07 0.05 0.05 0.04 0.03 0.03 0.03 0.03 0.03
0.05 0.04 0.03 0.02 0.02 0.02 0.02 0.02 0.03 0.02 0.02 0.05 0.05 0.05 0.04 0.04 0.04 0.03 0.03 0.04 0.04 0.06 0.08 0.15 0.18 0.14 0.11 0.10 0.07 0.06 0.06 0.05 0.06 0.05 0.05 0.07 0.06 0.06 0.05 0.04 0.04 0.04 0.03 0.03
0.04 0.04 0.04 0.04 0.03 0.03 0.03 0.04 0.03 0.02 0.02 0.02 0.05 0.05 0.05 0.04 0.04 0.03 0.02 0.02 0.03 0.05 0.07 0.13 0.17 0.14 0.11 0.08 0.06 0.06 0.07 0.06 0.08 0.07 0.05 0.05 0.05 0.04 0.04 0.04 0.04 0.04 0.03 0.03
0.04 0.06 0.06 0.05 0.05 0.05 0.05 0.05 0.04 0.04 0.03 0.03 0.03 0.04 0.05 0.05 0.04 0.03 0.02 0.02 0.02 0.03 0.03 0.05 0.06 0.05 0.05 0.05 0.08 0.10 0.09 0.11 0.11 0.08 0.07 0.07 0.07 0.06 0.05 0.05 0.05 0.04 0.03 0.03
0.05 0.08 0.08 0.06 0.05 0.06 0.06 0.05 0.04 0.04 0.04 0.04 0.03 0.03 0.05 0.06 0.04 0.03 0.02 0.02 0.02 0.02 0.02 0.02 0.02 0.03 0.04 0.06 0.07 0.07 0.09 0.11 0.10 0.07 0.06 0.06 0.05 0.05 0.04 0.05 0.05 0.05 0.04 0.03
0.04 0.07 0.07 0.06 0.05 0.06 0.06 0.05 0.05 0.04 0.04 0.04 0.03 0.03 0.03 0.04 0.02 0.02 0.02 0.02 0.03 0.02 0.02 0.02 0.02 0.02 0.01 0.02 0.04 0.04 0.05 0.05 0.05 0.04 0.04 0.04 0.04 0.04 0.04 0.03 0.04 0.04 0.04 0.03
0.05 0.06 0.05 0.05 0.04 0.03 0.02 0.02 0.03 0.03 0.03 0.03 0.04 0.03 0.02 0.02 0.01 0.01 0.01 0.02 0.03 0.03 0.03 0.03 0.02 0.02 0.02 0.03 0.04 0.04 0.04 0.04 0.04 0.04 0.03 0.03 0.03 0.03 0.03 0.03 0.03 0.03 0.03 0.03
MSLP
1002.90 1002.60 1002.42 1002.35 1002.39 1002.53 1002.71 1002.93 1003.14 1003.33 1003.48 1003.61 1003.72 1003.85 1004.02 1004.23 1004.51 1004.86 1005.26 1005.69 1006.15 1006.61 1007.06 1007.50 1007.93 1008.35 1008.75 1009.14 1009.50 1009.83 1010.11 1010.33 1010.50 1010.61 1010.69 1010.76 1010.85 1010.99 1011.19 1011.44 1011.76 1012.11 1012.46 1012.79
1003.52 1003.03 1002.57 1002.18 1001.89 1001.70 1001.62 1001.65 1001.77 1001.97 1002.22 1002.51 1002.82 1003.15 1003.48 1003.81 1004.16 1004.50 1004.86 1005.23 1005.61 1006.02 1006.44 1006.89 1007.36 1007.84 1008.31 1008.76 1009.16 1009.51 1009.78 1009.97 1010.11 1010.19 1010.27 1010.36 1010.50 1010.71 1011.01 1011.37 1011.79 1012.22 1012.64 1012.99
1004.27 1003.59 1002.89 1002.21 1001.59 1001.10 1000.75 1000.57 1000.56 1000.71 1001.00 1001.38 1001.83 1002.30 1002.76 1003.20 1003.60 1003.96 1004.30 1004.63 1004.96 1005.33 1005.74 1006.20 1006.70 1007.23 1007.76 1008.26 1008.71 1009.07 1009.35 1009.55 1009.67 1009.76 1009.85 1009.98 1010.19 1010.48 1010.87 1011.33 1011.83 1012.34 1012.81 1013.19
1004.91 1004.09 1003.18 1002.25 1001.37 1000.60 1000.00 999.62 999.46 999.53 999.80 1000.22 1000.74 1001.31 1001.87 1002.38 1002.83 1003.22 1003.56 1003.87 1004.19 1004.54 1004.94 1005.41 1005.93 1006.50 1007.08 1007.63 1008.12 1008.52 1008.83 1009.05 1009.20 1009.32 1009.46 1009.64 1009.91 1010.28 1010.74 1011.28 1011.86 1012.42 1012.92 1013.33
1005.18 1004.24 1003.19 1002.08 1000.99 1000.02 999.23 998.67 998.39 998.37 998.59 999.01 999.57 1000.19 1000.81 1001.39 1001.89 1002.32 1002.68 1002.99 1003.31 1003.66 1004.06 1004.54 1005.09 1005.69 1006.30 1006.89 1007.43 1007.88 1008.24 1008.52 1008.73 1008.91 1009.10 1009.35 1009.68 1010.11 1010.63 1011.22 1011.84 1012.43 1012.95 1013.37
1004.87 1003.84 1002.69 1001.48 1000.28 999.20 998.29 997.63 997.26 997.18 997.36 997.77 998.33 998.98 999.65 1000.27 1000.83 1001.30 1001.69 1002.04 1002.37 1002.73 1003.15 1003.64 1004.20 1004.82 1005.47 1006.10 1006.69 1007.21 1007.64 1007.99 1008.28 1008.54 1008.81 1009.13 1009.52 1010.00 1010.55 1011.16 1011.79 1012.38 1012.90 1013.32
1003.87 1002.78 1001.59 1000.35 999.14 998.04 997.12 996.44 996.05 995.94 996.11 996.52 997.09 997.76 998.46 999.13 999.73 1000.25 1000.69 1001.07 1001.43 1001.82 1002.25 1002.75 1003.33 1003.96 1004.63 1005.31 1005.95 1006.54 1007.06 1007.50 1007.89 1008.25 1008.60 1008.99 1009.44 1009.94 1010.51 1011.11 1011.72 1012.29 1012.79 1013.20
1002.24 1001.10 999.92 998.73 997.59 996.57 995.73 995.12 994.78 994.72 994.92 995.34 995.93 996.62 997.34 998.04 998.69 999.25 999.74 1000.16 1000.56 1000.97 1001.42 1001.93 1002.51 1003.16 1003.85 1004.57 1005.27 1005.93 1006.54 1007.08 1007.58 1008.03 1008.48 1008.93 1009.42 1009.94 1010.49 1011.07 1011.64 1012.18 1012.66 1013.05
1000.15 999.00 997.87 996.78 995.79 994.93 994.25 993.79 993.57 993.60 993.87 994.33 994.95 995.66 996.40 997.13 997.80 998.40 998.92 999.39 999.82 1000.25 1000.71 1001.23 1001.81 1002.46 1003.17 1003.91 1004.66 1005.39 1006.08 1006.73 1007.32 1007.87 1008.40 1008.91 1009.42 1009.95 1010.48 1011.02 1011.55 1012.04 1012.49 1012.87
997.90 996.75 995.70 994.77 993.97 993.33 992.87 992.61 992.56 992.72 993.07 993.60 994.24 994.97 995.72 996.46 997.15 997.77 998.33 998.82 999.27 999.71 1000.18 1000.69 1001.27 1001.91 1002.62 1003.37 1004.15 1004.93 1005.68 1006.41 1007.08 1007.71 1008.30 1008.85 1009.39 1009.91 1010.41 1010.91 1011.40 1011.86 1012.29 1012.67
995.77 994.65 993.71 992.95 992.38 991.99 991.78 991.74 991.88 992.19 992.64 993.22 993.90 994.63 995.38 996.11 996.80 997.43 997.99 998.49 998.96 999.40 999.86 1000.36 1000.91 1001.53 1002.21 1002.95 1003.73 1004.53 1005.32 1006.08 1006.81 1007.49 1008.12 1008.70 1009.24 1009.75 1010.24 1010.71 1011.16 1011.60 1012.01 1012.40
993.98 992.92 992.12 991.56 991.22 991.08 991.11 991.30 991.62 992.07 992.62 993.25 993.94 994.67 995.40 996.11 996.78 997.39 997.95 998.45 998.91 999.35 999.79 1000.25 1000.77 1001.34 1001.97 1002.67 1003.42 1004.19 1004.97 1005.74 1006.47 1007.16 1007.80 1008.39 1008.93 1009.43 1009.90 1010.35 1010.79 1011.22 1011.64 1012.05
992.59 991.64 991.00 990.64 990.54 990.63 990.90 991.29 991.78 992.35 992.97 993.64 994.33 995.03 995.73 996.41 997.04 997.64 998.18 998.66 999.11 999.53 999.94 1000.36 1000.82 1001.33 1001.90 1002.52 1003.19 1003.90 1004.63 1005.36 1006.07 1006.73 1007.36 1007.93 1008.46 1008.94 1009.40 1009.84 1010.27 1010.71 1011.15 1011.59
991.56 990.76 990.31 990.16 990.28 990.60 991.07 991.64 992.27 992.93 993.61 994.29 994.97 995.65 996.30 996.94 997.54 998.10 998.62 999.09 999.52 999.91 1000.29 1000.67 1001.07 1001.50 1001.97 1002.50 1003.07 1003.69 1004.33 1004.98 1005.62 1006.23 1006.82 1007.36 1007.86 1008.33 1008.78 1009.22 1009.66 1010.10 1010.56 1011.02
990.72 990.12 989.89 989.97 990.31 990.84 991.50 992.22 992.96 993.70 994.41 995.10 995.76 996.40 997.01 997.61 998.17 998.71 999.21 999.66 1000.07 1000.44 1000.79 1001.12 1001.45 1001.79 1002.17 1002.59 1003.05 1003.55 1004.08 1004.63 1005.19 1005.73 1006.26 1006.76 1007.23 1007.68 1008.12 1008.56 1009.00 1009.45 1009.91 1010.39
989.93 989.58 989.59 989.91 990.48 991.21 992.03 992.88 993.72 994.52 995.26 995.95 996.58 997.19 997.76 998.32 998.86 999.37 999.85 1000.29 1000.69 1001.04 1001.36 1001.64 1001.91 1002.18 1002.47 1002.78 1003.12 1003.51 1003.92 1004.37 1004.83 1005.30 1005.76 1006.21 1006.65 1007.08 1007.51 1007.93 1008.37 1008.81 1009.27 1009.73
989.10 989.03 989.32 989.89 990.68 991.60 992.57 993.54 994.45 995.29 996.05 996.73 997.35 997.92 998.47 998.99 999.50 999.99 1000.46 1000.89 1001.27 1001.62 1001.91 1002.16 1002.38 1002.59 1002.79 1003.02 1003.26 1003.55 1003.86 1004.21 1004.59 1004.99 1005.39 1005.80 1006.20 1006.61 1007.01 1007.42 1007.83 1008.25 1008.67 1009.09
988.26 988.50 989.06 989.89 990.88 991.97 993.08 994.14 995.12 995.99 996.75 997.43 998.02 998.56 999.07 999.56 1000.04 1000.51 1000.97 1001.39 1001.77 1002.10 1002.37 1002.60 1002.79 1002.95 1003.10 1003.26 1003.43 1003.64 1003.88 1004.16 1004.47 1004.81 1005.16 1005.53 1005.91 1006.28 1006.66 1007.03 1007.40 1007.77 1008.14 1008.50
987.57 988.11 988.94 989.99 991.17 992.40 993.60 994.72 995.73 996.61 997.37 998.02 998.58 999.08 999.55 1000.01 1000.46 1000.90 1001.33 1001.74 1002.10 1002.42 1002.68 1002.90 1003.07 1003.20 1003.32 1003.44 1003.57 1003.73 1003.93 1004.16 1004.43 1004.73 1005.05 1005.39 1005.73 1006.07 1006.41 1006.74 1007.06 1007.37 1007.66 1007.94
987.26 988.06 989.11 990.34 991.65 992.97 994.22 995.36 996.37 997.22 997.94 998.54 999.06 999.51 999.93 1000.34 1000.75 1001.15 1001.55 1001.92 1002.27 1002.56 1002.82 1003.02 1003.17 1003.30 1003.40 1003.51 1003.62 1003.76 1003.93 1004.15 1004.39 1004.67 1004.97 1005.28 1005.59 1005.90 1006.20 1006.48 1006.74 1006.97 1007.18 1007.36
987.53 988.53 989.73 991.06 992.43 993.77 995.00 996.11 997.06 997.85 998.50 999.03 999.47 999.86 1000.22 1000.57 1000.92 1001.28 1001.63 1001.96 1002.27 1002.55 1002.78 1002.97 1003.11 1003.23 1003.33 1003.43 1003.55 1003.68 1003.85 1004.05 1004.29 1004.55 1004.83 1005.12 1005.40 1005.68 1005.93 1006.15 1006.35 1006.51 1006.64 1006.74
988.51 989.61 990.88 992.22 993.55 994.82 995.97 996.98 997.82 998.50 999.05 999.49 999.84 1000.16 1000.44 1000.73 1001.02 1001.31 1001.61 1001.90 1002.17 1002.41 1002.61 1002.78 1002.91 1003.03 1003.13 1003.23 1003.34 1003.47 1003.64 1003.83 1004.06 1004.30 1004.56 1004.83 1005.08 1005.32 1005.53 1005.70 1005.84 1005.95 1006.01 1006.04
990.15 991.27 992.49 993.74 994.95 996.08 997.07 997.91 998.60 999.15 999.57 999.90 1000.16 1000.40 1000.61 1000.84 1001.07 1001.31 1001.55 1001.79 1002.02 1002.22 1002.39 1002.53 1002.64 1002.74 1002.83 1002.92 1003.03 1003.16 1003.31 1003.49 1003.70 1003.92 1004.16 1004.39 1004.61 1004.81 1004.98 1005.11 1005.21 1005.27 1005.29 1005.28
992.27 993.31 994.39 995.47 996.49 997.40 998.18 998.82 999.33 999.72 1000.02 1000.24 1000.42 1000.59 1000.75 1000.92 1001.11 1001.31 1001.51 1001.70 1001.88 1002.04 1002.18 1002.29 1002.38 1002.45 1002.52 1002.59 1002.68 1002.79 1002.92 1003.08 1003.26 1003.45 1003.65 1003.85 1004.03 1004.20 1004.34 1004.44 1004.51 1004.54 1004.54 1004.52
994.60 995.47 996.35 997.19 997.96 998.62 999.17 999.60 999.93 1000.18 1000.36 1000.50 1000.62 1000.74 1000.87 1001.02 1001.19 1001.36 1001.53 1001.70 1001.84 1001.97 1002.07 1002.14 1002.19 1002.24 1002.28 1002.32 1002.38 1002.46 1002.56 1002.69 1002.83 1002.98 1003.15 1003.30 1003.46 1003.59 1003.70 1003.78 1003.84 1003.87 1003.87 1003.85
996.81 997.47 998.10 998.68 999.19 999.61 999.93 1000.18 1000.36 1000.49 1000.59 1000.68 1000.78 1000.89 1001.03 1001.18 1001.35 1001.52 1001.68 1001.83 1001.95 1002.05 1002.11 1002.15 1002.17 1002.18 1002.19 1002.20 1002.22 1002.27 1002.33 1002.42 1002.52 1002.64 1002.76 1002.89 1003.01 1003.12 1003.21 1003.29 1003.34 1003.38 1003.39 1003.39
998.65 999.09 999.48 999.82 1000.09 1000.30 1000.45 1000.55 1000.63 1000.69 1000.77 1000.86 1000.97 1001.12 1001.28 1001.47 1001.66 1001.84 1002.01 1002.14 1002.25 1002.32 1002.36 1002.36 1002.35 1002.32 1002.30 1002.28 1002.27 1002.28 1002.32 1002.37 1002.44 1002.53 1002.63 1002.73 1002.83 1002.92 1003.01 1003.08 1003.14 1003.19 1003.22 1003.23
Thickness
5801 5817 5826 5829 5831 5837 5834 5836 5826 5825 5831 5842 5852 5857 5858 5860 5860 5856 5852 5850 5846 5842 5837 5834 5831 5827 5824 5820 5817 5813 5807 5802 5798 5796 5793 5789 5785 5783 5780 5777 5775 5771 5768 5765
5786 5806 5817 5822 5831 5835 5836 5838 5836 5833 5836 5855 5859 5861 5855 5854 5853 5849 5847 5846 5844 5841 5836 5832 5829 5826 5823 5819 5816 5812 5806 5802 5800 5796 5792 5788 5785 5782 5779 5776 5773 5770 5766 5763
5773 5797 5801 5798 5823 5830 5834 5841 5837 5825 5836 5851 5850 5848 5849 5851 5851 5847 5845 5844 5842 5839 5835 5832 5829 5826 5821 5819 5816 5811 5806 5803 5800 5796 5792 5789 5786 5782 5778 5774 5771 5767 5764 5761
5766 5775 5759 5801 5838 5840 5833 5837 5841 5839 5844 5847 5848 5852 5856 5855 5850 5847 5844 5842 5840 5837 5834 5833 5830 5827 5823 5819 5814 5808 5804 5801 5799 5795 5791 5788 5784 5781 5777 5773 5769 5765 5762 5759
5758 5759 5770 5797 5821 5830 5821 5820 5839 5837 5837 5844 5851 5848 5844 5852 5851 5848 5845 5842 5839 5838 5835 5831 5828 5826 5820 5816 5811 5806 5802 5799 5797 5794 5790 5786 5782 5779 5776 5771 5767 5763 5760 5757
5753 5749 5755 5786 5819 5836 5824 5805 5834 5838 5835 5839 5839 5822 5825 5844 5846 5844 5842 5840 5837 5835 5832 5827 5825 5823 5816 5811 5808 5804 5802 5799 5797 5794 5789 5784 5781 5777 5774 5769 5765 5762 5759 5756
5745 5749 5766 5801 5820 5823 5790 5794 5827 5834 5833 5832 5827 5825 5835 5840 5838 5837 5835 5833 5832 5829 5825 5822 5822 5818 5811 5808 5805 5804 5802 5798 5794 5791 5787 5783 5779 5775 5771 5767 5763 5760 5756 5754
5743 5744 5756 5799 5806 5796 5796 5816 5822 5826 5828 5826 5827 5828 5830 5829 5826 5826 5825 5825 5824 5820 5818 5818 5817 5812 5806 5803 5804 5803 5799 5795 5790 5787 5784 5781 5775 5772 5768 5764 5758 5755 5752 5749
5745 5750 5773 5791 5793 5801 5809 5808 5814 5818 5820 5820 5817 5815 5816 5817 5816 5816 5816 5816 5817 5814 5811 5811 5810 5807 5800 5800 5800 5797 5793 5789 5785 5782 5779 5776 5771 5767 5763 5759 5755 5752 5748 5745
5744 5753 5768 5780 5788 5796 5802 5803 5808 5811 5810 5810 5805 5804 5804 5804 5805 5805 5806 5807 5808 5806 5802 5801 5802 5801 5798 5796 5794 5791 5786 5783 5780 5776 5773 5770 5767 5764 5761 5757 5753 5749 5746 5743
5735 5746 5757 5767 5775 5782 5791 5797 5799 5801 5801 5799 5797 5794 5794 5793 5795 5796 5797 5798 5798 5796 5794 5793 5795 5793 5793 5791 5788 5783 5779 5776 5774 5771 5768 5765 5762 5759 5757 5754 5751 5747 5744 5741
5725 5741 5746 5752 5766 5774 5777 5781 5785 5786 5786 5788 5787 5784 5785 5784 5786 5788 5788 5788 5788 5787 5786 5786 5786 5785 5785 5784 5781 5775 5771 5768 5767 5766 5764 5761 5757 5754 5750 5748 5746 5743 5740 5736
5738 5747 5750 5753 5759 5765 5767 5771 5773 5774 5774 5774 5776 5775 5774 5775 5777 5778 5778 5778 5777 5776 5776 5776 5776 5775 5776 5776 5773 5769 5765 5763 5762 5761 5759 5756 5754 5749 5744 5741 5738 5735 5732 5729
5734 5738 5737 5742 5747 5755 5759 5762 5763 5764 5765 5765 5766 5765 5767 5767 5768 5767 5767 5768 5768 5767 5767 5767 5766 5766 5767 5767 5764 5761 5759 5757 5756 5755 5755 5753 5750 5747 5743 5739 5734 5731 5726 5721
5726 5732 5733 5738 5741 5744 5747 5748 5748 5749 5752 5752 5754 5754 5755 5755 5756 5758 5760 5761 5760 5758 5758 5757 5756 5756 5758 5757 5754 5752 5751 5751 5750 5749 5748 5748 5746 5743 5740 5736 5732 5728 5724 5717
5716 5722 5725 5727 5728 5731 5732 5734 5734 5736 5740 5741 5741 5742 5745 5746 5747 5749 5750 5751 5748 5747 5747 5745 5744 5746 5747 5746 5744 5742 5742 5741 5740 5739 5739 5738 5737 5735 5733 5729 5726 5722 5718 5713
5703 5706 5711 5714 5718 5721 5722 5724 5724 5725 5727 5729 5732 5734 5736 5736 5736 5737 5738 5740 5739 5737 5737 5736 5736 5737 5736 5736 5735 5734 5733 5731 5729 5729 5728 5727 5727 5725 5723 5721 5718 5715 5712 5709
5701 5705 5708 5710 5711 5713 5714 5716 5717 5718 5718 5721 5723 5724 5724 5724 5724 5725 5727 5729 5728 5727 5727 5728 5727 5727 5726 5726 5725 5725 5724 5722 5720 5719 5718 5717 5717 5716 5715 5712 5709 5706 5704 5701
5696 5698 5701 5703 5704 5706 5707 5708 5709 5711 5712 5713 5713 5713 5714 5715 5715 5716 5717 5717 5716 5714 5715 5717 5716 5716 5716 5716 5715 5715 5715 5713 5712 5710 5709 5707 5706 5706 5705 5704 5701 5699 5697 5693
5688 5690 5692 5693 5696 5698 5699 5701 5703 5703 5704 5704 5703 5703 5703 5704 5706 5706 5705 5705 5706 5707 5707 5706 5705 5706 5706 5706 5704 5705 5705 5704 5702 5700 5699 5699 5698 5696 5695 5694 5692 5690 5687 5684
5679 5682 5683 5685 5687 5690 5692 5694 5694 5693 5695 5696 5695 5693 5694 5695 5697 5697 5696 5694 5697 5698 5698 5696 5696 5696 5696 5695 5693 5695 5695 5694 5693 5692 5690 5689 5688 5686 5684 5683 5681 5679 5677 5673
5669 5672 5674 5677 5678 5680 5684 5686 5687 5687 5687 5687 5687 5687 5686 5686 5687 5688 5688 5688 5689 5687 5688 5689 5688 5686 5685 5683 5685 5685 5684 5684 5683 5682 5681 5679 5678 5675 5673 5672 5670 5668 5666 5663
5661 5662 5665 5667 5669 5672 5675 5676 5678 5679 5679 5678 5678 5678 5678 5678 5679 5679 5678 5681 5682 5679 5680 5680 5676 5676 5675 5675 5675 5674 5675 5674 5673 5673 5672 5670 5669 5667 5665 5663 5660 5658 5655 5652
5653 5655 5658 5661 5663 5663 5664 5667 5669 5670 5671 5672 5672 5673 5672 5671 5672 5674 5674 5672 5671 5670 5671 5669 5667 5666 5665 5667 5666 5665 5665 5665 5665 5664 5662 5661 5660 5659 5656 5653 5650 5647 5645 5642
5647 5649 5652 5653 5654 5656 5657 5659 5660 5662 5663 5664 5665 5666 5667 5666 5665 5667 5666 5665 5662 5662 5662 5661 5658 5657 5658 5660 5659 5658 5656 5655 5656 5655 5654 5652 5650 5649 5647 5644 5641 5637 5635 5632
5642 5643 5645 5647 5648 5650 5652 5654 5654 5655 5656 5656 5656 5657 5657 5659 5658 5658 5657 5657 5656 5653 5653 5653 5652 5649 5651 5651 5650 5649 5649 5648 5647 5645 5644 5642 5639 5638 5636 5634 5631 5628 5625 5622
5638 5638 5640 5642 5644 5646 5647 5647 5647 5647 5648 5648 5647 5649 5649 5650 5650 5649 5648 5647 5646 5646 5645 5645 5645 5644 5643 5642 5641 5639 5639 5638 5638 5636 5633 5631 5629 5627 5625 5622 5620 5617 5614 5611